2023/02/20 00:00:00,42.3, 1.2
2023/02/20 00:10:00,42.2, 1.8
2023/02/20 00:20:00,42.2, 1.4
2023/02/20 00:30:00,42.1, 1.4
2023/02/20 00:40:00,42.1, 1.3
2023/02/20 00:50:00,42.1, 1.4
2023/02/20 01:00:00,42.1, 1.8
2023/02/20 01:10:00,42.1, 1.9
2023/02/20 01:20:00,42.1, 1.1
2023/02/20 01:30:00,42.1, 1.2
2023/02/20 01:40:00,42.1, 1.8
2023/02/20 01:50:00,42.1, 1.8
2023/02/20 02:00:00,42.2, 1.8
2023/02/20 02:10:00,42.2, 2.3
2023/02/20 02:20:00,42.1, 2.1
2023/02/20 02:30:00,42.1, 2.2
2023/02/20 02:40:00,42.1, 2.2
2023/02/20 02:50:00,42.0, 1.8
2023/02/20 03:00:00,41.9, 1.6
2023/02/20 03:10:00,41.9, 1.4
2023/02/20 03:20:00,42.0, 1.5
2023/02/20 03:30:00,41.9, 1.3
2023/02/20 03:40:00,41.9, 1.6
2023/02/20 03:50:00,42.1, 1.4
2023/02/20 04:00:00,42.1, 1.3
2023/02/20 04:10:00,42.0, 1.0
2023/02/20 04:20:00,42.1, 1.3
2023/02/20 04:30:00,42.1, 1.3
2023/02/20 04:40:00,42.1, 1.1
2023/02/20 04:50:00,42.1, 1.2
2023/02/20 05:00:00,41.9, 0.8
2023/02/20 05:10:00,41.8, 0.7
2023/02/20 05:20:00,42.1, 0.7
2023/02/20 05:30:00,42.0, 0.7
2023/02/20 05:40:00,42.0, 0.6
2023/02/20 05:50:00,42.1, 0.2
2023/02/20 06:00:00,42.4, 0.2
2023/02/20 06:10:00,42.6, 0.2
2023/02/20 06:20:00,43.0,-0.2
2023/02/20 06:30:00,43.0,-0.4
2023/02/20 06:40:00,43.0, 0.0
2023/02/20 06:50:00,43.4, 0.0
2023/02/20 07:00:00,43.9,-0.3
2023/02/20 07:10:00,44.0,-0.3
2023/02/20 07:20:00,44.3,-0.4
2023/02/20 07:30:00,44.4,-0.4
2023/02/20 07:40:00,44.5,-0.1
2023/02/20 07:50:00,44.5,-0.1
2023/02/20 08:00:00,44.9,-0.4
2023/02/20 08:10:00,45.1,-0.1
2023/02/20 08:20:00,45.7,-0.7
2023/02/20 08:30:00,45.7, 0.3
2023/02/20 08:40:00,45.6, 0.2
2023/02/20 08:50:00,45.6, 0.4
2023/02/20 09:00:00,45.5, 1.2
2023/02/20 09:10:00,45.5, 1.1
2023/02/20 09:20:00,45.4, 0.6
2023/02/20 09:30:00,45.4, 0.2
2023/02/20 09:40:00,45.4, 1.1
2023/02/20 09:50:00,45.3, 1.4
2023/02/20 10:00:00,45.2, 1.3
2023/02/20 10:10:00,45.2, 5.6
2023/02/20 10:20:00,45.2, 2.6
2023/02/20 10:30:00,45.3, 1.6
2023/02/20 10:40:00,45.3, 2.8
2023/02/20 10:50:00,45.3, 1.5
2023/02/20 11:00:00,45.1, 2.3
2023/02/20 11:10:00,45.0, 3.5
2023/02/20 11:20:00,44.9, 4.2
2023/02/20 11:30:00,44.7, 4.8
2023/02/20 11:40:00,44.8, 3.6
2023/02/20 11:50:00,44.7, 3.2
2023/02/20 12:00:00,44.6, 3.9
2023/02/20 12:10:00,44.5, 3.5
2023/02/20 12:20:00,44.5, 4.2
2023/02/20 12:30:00,44.4, 4.2
2023/02/20 12:40:00,44.3, 2.7
2023/02/20 12:50:00,44.4, 1.5
2023/02/20 13:00:00,44.3, 1.6
2023/02/20 13:10:00,44.2, 2.8
2023/02/20 13:20:00,44.2, 2.3
2023/02/20 13:30:00,44.7, 1.3
2023/02/20 13:40:00,44.9, 0.9
2023/02/20 13:50:00,44.8, 1.3
2023/02/20 14:00:00,44.6, 2.7
2023/02/20 14:10:00,44.5, 2.9
2023/02/20 14:20:00,44.3, 3.9
2023/02/20 14:30:00,44.2, 2.8
2023/02/20 14:40:00,44.4, 2.0
2023/02/20 14:50:00,44.7, 2.9
2023/02/20 15:00:00,44.6, 2.9
2023/02/20 15:10:00,44.6, 2.4
2023/02/20 15:20:00,44.5, 0.8
2023/02/20 15:30:00,45.0,-0.7
2023/02/20 15:40:00,45.8,-0.1
2023/02/20 15:50:00,46.0, 0.1
2023/02/20 16:00:00,46.0,-0.1
2023/02/20 16:10:00,46.0,-0.1
2023/02/20 16:20:00,46.0,-0.6
2023/02/20 16:30:00,46.0,-0.5
2023/02/20 16:40:00,46.0,-0.9
2023/02/20 16:50:00,46.0,-1.2
2023/02/20 17:00:00,46.7,-1.0
2023/02/20 17:10:00,47.2,-1.4
2023/02/20 17:20:00,47.3,-1.3
2023/02/20 17:30:00,47.6,-1.4
2023/02/20 17:40:00,47.6,-1.4
2023/02/20 17:50:00,47.7,-1.8
2023/02/20 18:00:00,47.7,-1.8
2023/02/20 18:10:00,47.7,-1.6
2023/02/20 18:20:00,48.7,-2.2
2023/02/20 18:30:00,49.1,-2.1
2023/02/20 18:40:00,49.4,-2.1
2023/02/20 18:50:00,49.9,-2.3
2023/02/20 19:00:00,50.0,-2.1
2023/02/20 19:10:00,50.0,-2.3
2023/02/20 19:20:00,50.1,-2.3
2023/02/20 19:30:00,50.2,-2.7
2023/02/20 19:40:00,50.2,-3.0
2023/02/20 19:50:00,50.2,-2.8
2023/02/20 20:00:00,50.3,-2.8
2023/02/20 20:10:00,51.0,-3.1
2023/02/20 20:20:00,51.8,-3.1
2023/02/20 20:30:00,52.4,-2.8
2023/02/20 20:40:00,52.9,-3.2
2023/02/20 20:50:00,53.3,-3.2
2023/02/20 21:00:00,53.3,-2.9
2023/02/20 21:10:00,53.1,-2.8
2023/02/20 21:20:00,53.0,-3.0
2023/02/20 21:30:00,53.7,-2.3
2023/02/20 21:40:00,53.7,-3.0
2023/02/20 21:50:00,53.7,-3.1
2023/02/20 22:00:00,53.7,-2.3
2023/02/20 22:10:00,53.7,-2.9
2023/02/20 22:20:00,53.7,-2.7
2023/02/20 22:30:00,53.7,-2.8
2023/02/20 22:40:00,53.5,-2.8
2023/02/20 22:50:00,53.5,-3.0
2023/02/20 23:00:00,53.5,-2.9
2023/02/20 23:10:00,53.9,-3.0
2023/02/20 23:20:00,54.0,-2.8
2023/02/20 23:30:00,54.3,-3.4
2023/02/20 23:40:00,54.9,-3.3
2023/02/20 23:50:00,55.3,-3.0
